[[[{"header":{"parameterUnit":"kt","parameterCategory":2,"dx":1,"dy":1,"la1":30.253999710083008,"la2":30.299108505249023,"lo1":-89.0895004272461,"lo2":-89.04439544677734,"nx":28,"ny":28,"refTime":"2022-09-21T09:00:00:Z","depth":"0","parameterNumber":2,"parameterNumberName":"U-component_of_CURRENTS"},"data":[-0.0163,-0.01,-0.0025,0.0119,0.0196,0.027,0.0316,0.0361,0.0412,0.0503,0.0601,0.069,0.0883,0.1142,0.125,0.1254,0.1267,0.1358,0.132,0.1086,0.1052,0.102,0.1032,0.1338,0.1338,0.1573,0.1576,0.1577,-0.0108,-0.0037,0.0033,0.0105,0.02,0.0227,0.0316,0.0355,0.0412,0.0469,0.0492,0.0663,0.0745,0.0806,0.0929,0.0999,0.0996,0.1039,0.1059,0.1047,0.0795,0.0806,0.1069,0.1069,0.1069,0.1068,0.1068,0.1068,-0.0004,0.0002,0.0046,0.0082,0.015,0.0228,0.0263,0.0331,0.0395,0.0429,0.0453,0.0495,0.0587,0.0624,0.0613,0.0717,0.0663,0.0707,0.0718,0.0747,0.0788,0.0547,0.0728,0.0727,0.0726,0.0725,0.0724,0,0.0052,0.0069,0.0053,0.0097,0.0125,0.0161,0.0204,0.0248,0.0304,0.034,0.0382,0.0395,0.0437,0.0455,0.0472,0.0442,0.0423,0.0382,0.0406,0.0475,0.0566,0.0555,0.0189,0.038,0.0377,0.0375,0.0373,0.0372,0.014,0.0112,0.0095,0.0109,0.0079,0.0075,0.0117,0.0142,0.0196,0.0243,0.027,0.0302,0.0307,0.0304,0.0262,0.0237,0.0206,0.0306,0.0224,0.0292,0.028,0.0309,0.0318,0.0338,0.0343,0.0346,0.0349,0,0.0175,0.017,0.0119,0.0077,0.0065,0.0043,0.0084,0.0122,0.0139,0.0185,0.0194,0.018,0.018,0.0108,0.0043,0.0004,0.0052,-0.0013,0.0081,0.0071,0.0194,0.02,0.046,0.0495,0.0128,0.0131,0.0134,0,0.022,0.0173,0.0139,0.0103,0.0073,0.005,0.0063,0.0047,0.0076,0.0095,0.0053,0.0069,-0.0035,-0.005,-0.0136,-0.0125,-0.0165,-0.0174,-0.0195,-0.0154,-0.0143,-0.0155,-0.0156,-0.0299,-0.03,-0.0301,-0.0301,0,0.025,0.0183,0.0152,0.0124,0.0066,0.0055,0.0039,0.0013,0.0017,-0.0002,0.001,-0.0057,-0.0076,-0.0128,-0.0216,-0.0271,-0.0232,-0.0333,-0.0256,-0.0249,-0.0234,-0.0228,0.0004,-0.0303,-0.0303,-0.0303,-0.0304,0,0.0257,0.0219,0.017,0.0132,0.0111,0.0068,0.0038,0.0003,-0.0041,-0.0072,-0.0113,-0.019,-0.022,-0.0288,-0.0332,-0.0369,-0.0402,-0.0445,-0.0444,-0.0422,-0.0513,-0.0334,-0.0142,-0.0103,-0.0455,-0.0457,-0.0458,0,0.0302,0.0244,0.022,0.015,0.0101,0.0047,0.0029,-0.0056,-0.011,-0.0153,-0.0242,-0.0318,-0.0406,-0.0442,-0.0451,-0.0548,-0.0508,-0.0564,-0.0632,-0.0633,-0.054,-0.037,-0.0297,-0.0175,-0.0477,-0.0475,-0.0474,0,0.0325,0.0267,0.0254,0.0212,0.0116,0.0046,0.0019,-0.0084,-0.0104,-0.0223,-0.0251,-0.0401,-0.0448,-0.054,-0.0642,-0.0641,-0.0541,-0.0722,-0.0727,-0.0652,-0.0506,-0.041,-0.0387,-0.0614,-0.0612,-0.061,-0.0489,0,0.0341,0.0289,0.0279,0.0172,0.0117,0.0052,-0.0061,-0.0109,-0.018,-0.028,-0.037,-0.0518,-0.0653,-0.0684,-0.0793,-0.0781,-0.0808,-0.089,-0.0962,-0.0868,-0.0829,-0.0816,-0.1024,-0.1028,-0.1031,-0.1033,0,0,0.0366,0.0285,0.021,0.0159,0.0105,-0.0019,-0.0078,-0.0157,-0.035,-0.0393,-0.0436,-0.0666,-0.08,-0.09,-0.0884,-0.0968,-0.0975,-0.1006,-0.0925,-0.0912,-0.0901,-0.0858,-0.0842,-0.1039,-0.104,-0.1041,-0.1042,0,0.034,0.0275,0.0237,0.0159,0.0033,-0.0058,-0.0072,-0.0234,-0.0297,-0.0427,-0.0547,-0.0633,-0.086,-0.0951,-0.1034,-0.1008,-0.1089,-0.1049,-0.0948,-0.0951,-0.0934,-0.092,-0.0873,-0.0857,-0.1049,-0.1049,-0.1049,0,0.0313,0.0232,0.0194,0.0049,-0.0041,-0.0116,-0.0208,-0.0294,-0.0359,-0.055,-0.0654,-0.077,-0.095,-0.1051,-0.1109,-0.1153,-0.1183,-0.1231,-0.1217,-0.1213,-0.1222,-0.1203,-0.1185,-0.1405,-0.1405,-0.1405,0,0,0.0293,0.0245,0.0078,0.0023,-0.0018,-0.017,-0.0227,-0.0323,-0.0463,-0.0522,-0.0666,-0.0812,-0.0938,-0.1025,-0.1156,-0.126,-0.1287,-0.1266,-0.1249,-0.1235,-0.1222,-0.1228,-0.1209,-0.1407,-0.1407,-0.1407,0,0,0.0269,0.0111,0.0046,-0.0024,-0.0141,-0.0312,-0.0333,-0.0416,-0.0551,-0.0566,-0.0751,-0.0803,-0.0915,-0.1034,-0.1032,-0.1168,-0.1245,-0.1251,-0.1082,-0.1064,-0.1048,-0.0997,-0.1159,0,0,0,0,0,0.015,0.0135,0.0078,0.0046,-0.0161,-0.0284,-0.0313,-0.0433,-0.0462,-0.0489,-0.0636,-0.0733,-0.106,-0.1063,-0.1111,-0.1092,-0.1425,-0.1422,-0.1419,-0.1227,-0.1206,-0.1188,0,0,0,0,0,0,0.0136,0.0097,0.0078,-0.0088,-0.0136,-0.0284,-0.036,-0.0395,-0.0463,-0.0476,-0.07,-0.074,-0.0876,-0.105,-0.109,-0.1068,-0.1146,-0.1424,-0.1421,-0.1418,-0.122,-0.1203,-0.1188,0,0,0,0,0,0.0125,0.0093,-0.0206,-0.009,-0.0131,-0.0295,-0.036,-0.039,-0.0449,-0.0662,-0.0702,-0.0534,-0.0872,-0.0918,-0.1075,-0.1045,-0.1119,-0.1133,-0.1422,-0.142,-0.1418,-0.1212,0,0,0,0,0,0,0.0116,0.0058,-0.0218,-0.0235,-0.0089,-0.029,-0.0326,-0.0385,-0.0635,-0.0672,-0.0505,-0.0514,-0.0869,-0.0906,-0.0941,-0.1026,-0.1097,-0.1112,-0.1121,-0.142,-0.1419,-0.1417,0,0,0,0,0,0,0.0074,0.0044,-0.0227,-0.0218,-0.0236,-0.0285,-0.0316,-0.0466,-0.0639,-0.0467,-0.048,-0.0507,-0.084,-0.0897,-0.0925,-0.1152,-0.108,-0.1094,-0.1104,-0.111,-0.1419,-0.1418,0,0,0,0,0,0,0.0059,0.0033,-0.0215,-0.0228,-0.0244,-0.045,-0.0423,-0.0645,-0.0578,-0.0457,-0.058,-0.0582,-0.0831,-0.086,-0.0913,-0.1127,-0.1146,-0.108,-0.109,-0.1097,-0.1101,0,0,0,0,0,0,0,0.0047,0.0252,-0.0111,-0.0237,-0.0251,-0.0393,-0.0398,-0.0403,-0.0578,-0.0579,-0.058,-0.0581,-0.0998,-0.1014,-0.103,-0.1107,0,0,-0.1079,-0.1086,0,0,0,0,0,0,0,0,0.026,0.0254,-0.0111,-0.0115,-0.0118,-0.0394,-0.0398,-0.0402,-0.0578,-0.0579,-0.058,-0.0581,-0.1003,-0.1015,-0.1028,0,0,0,0,0,0,0,0,0,0,0,0,0,0,0,-0.0112,-0.0114,0,-0.0395,-0.0398,-0.0401,-0.0578,-0.0579,-0.058,-0.058,-0.1006,-0.1016,-0.1027,0,0,0,0,0,0,0,0,0,0,0,0,0,0,0,0,0,0,0,0,0,0,0,0,0,0,0,0,0,0,0,0,0,0,0,0,0,0,0,0,0,0,0,0,0,0,0,0,0,0,0,0,0,0,0,0,0,0,0,0,0,0,0,0,0,0,0,0,0]}],[{"header":{"parameterUnit":"kt","parameterCategory":2,"dx":1,"dy":1,"la1":30.253999710083008,"la2":30.299108505249023,"lo1":-89.0895004272461,"lo2":-89.04439544677734,"nx":28,"ny":28,"refTime":"2022-09-21T09:00:00:Z","depth":"0","parameterNumber":3,"parameterNumberName":"V-component_of_CURRENTS"},"data":[-0.2957,-0.2941,-0.2953,-0.2946,-0.2948,-0.2921,-0.2919,-0.2896,-0.2868,-0.2777,-0.2716,-0.2676,-0.2866,-0.3195,-0.3383,-0.348,-0.3478,-0.3531,-0.3451,-0.3416,-0.3409,-0.3403,-0.3438,-0.3455,-0.3455,-0.365,-0.3649,-0.3649,-0.3023,-0.3027,-0.3006,-0.2972,-0.2993,-0.2974,-0.2997,-0.2995,-0.3028,-0.2998,-0.2957,-0.3038,-0.3209,-0.336,-0.3555,-0.3543,-0.3672,-0.3526,-0.3607,-0.3637,-0.3636,-0.3687,-0.3759,-0.3759,-0.3759,-0.3759,-0.3759,-0.3759,-0.3156,-0.311,-0.3112,-0.303,-0.3025,-0.3022,-0.2982,-0.3057,-0.3097,-0.3107,-0.3125,-0.3072,-0.3292,-0.3355,-0.3378,-0.3503,-0.3455,-0.3533,-0.3413,-0.3452,-0.3529,-0.3524,-0.355,-0.3548,-0.3547,-0.3546,-0.3545,0,-0.3264,-0.3249,-0.3189,-0.3134,-0.3086,-0.3029,-0.3001,-0.3046,-0.3118,-0.3159,-0.32,-0.3206,-0.3247,-0.3301,-0.3305,-0.3328,-0.3357,-0.3358,-0.3307,-0.3428,-0.3479,-0.3519,-0.3496,-0.3512,-0.3511,-0.3509,-0.3508,-0.3508,-0.3413,-0.3363,-0.3261,-0.3224,-0.3145,-0.3041,-0.303,-0.3044,-0.3118,-0.317,-0.321,-0.3229,-0.3261,-0.3224,-0.3271,-0.325,-0.3224,-0.3319,-0.3386,-0.3346,-0.324,-0.3278,-0.3317,-0.3489,-0.3491,-0.3493,-0.3495,0,-0.3466,-0.3474,-0.3368,-0.3273,-0.3223,-0.3122,-0.3072,-0.3101,-0.314,-0.3186,-0.3203,-0.3289,-0.3286,-0.3278,-0.325,-0.3253,-0.3243,-0.322,-0.3325,-0.3338,-0.334,-0.3246,-0.3255,-0.3297,-0.3222,-0.3222,-0.3222,0,-0.3546,-0.3472,-0.3429,-0.3371,-0.3249,-0.3234,-0.3166,-0.3145,-0.3198,-0.3227,-0.3291,-0.3322,-0.3325,-0.3312,-0.3296,-0.3271,-0.3255,-0.3282,-0.328,-0.3382,-0.3392,-0.3379,-0.3292,-0.3266,-0.3266,-0.3267,-0.3267,0,-0.3591,-0.3531,-0.3469,-0.3441,-0.3366,-0.3304,-0.3248,-0.3262,-0.3276,-0.3308,-0.335,-0.334,-0.3332,-0.3321,-0.331,-0.3328,-0.327,-0.3294,-0.3292,-0.3292,-0.3398,-0.3409,-0.3356,-0.3268,-0.3268,-0.3268,-0.3269,0,-0.363,-0.3598,-0.3536,-0.3463,-0.3445,-0.3378,-0.3331,-0.3303,-0.3322,-0.3353,-0.3364,-0.3385,-0.3359,-0.3379,-0.3337,-0.3355,-0.334,-0.3331,-0.3328,-0.337,-0.3379,-0.3431,-0.3411,-0.338,-0.3294,-0.3295,-0.3295,0,-0.366,-0.3625,-0.3625,-0.3543,-0.3512,-0.3487,-0.3461,-0.3424,-0.3438,-0.3433,-0.3419,-0.3405,-0.3404,-0.3395,-0.3389,-0.3367,-0.3352,-0.3378,-0.3363,-0.3362,-0.339,-0.3351,-0.3465,-0.3415,-0.3302,-0.3302,-0.3301,0,-0.3701,-0.3697,-0.3693,-0.3648,-0.3616,-0.3575,-0.3552,-0.3506,-0.3504,-0.3475,-0.3466,-0.3411,-0.3425,-0.3409,-0.3395,-0.3396,-0.3361,-0.341,-0.3411,-0.3383,-0.3332,-0.3356,-0.3353,-0.3379,-0.3378,-0.3378,-0.3307,0,-0.3735,-0.3717,-0.3723,-0.3683,-0.3655,-0.362,-0.3597,-0.357,-0.3568,-0.3563,-0.3517,-0.349,-0.3468,-0.345,-0.3442,-0.3409,-0.3407,-0.3426,-0.3462,-0.3433,-0.3403,-0.3398,-0.3464,-0.3465,-0.3465,-0.3466,0,0,-0.3757,-0.3741,-0.3748,-0.3732,-0.3709,-0.3694,-0.3654,-0.3645,-0.361,-0.3603,-0.3612,-0.3557,-0.3533,-0.3482,-0.3469,-0.3453,-0.3448,-0.3477,-0.3445,-0.3442,-0.344,-0.341,-0.3405,-0.3467,-0.3468,-0.3468,-0.3468,0,-0.3772,-0.3771,-0.3759,-0.3736,-0.3715,-0.3702,-0.3692,-0.3681,-0.3676,-0.3628,-0.3627,-0.3593,-0.3551,-0.3532,-0.3517,-0.3465,-0.3475,-0.3456,-0.3455,-0.345,-0.3447,-0.3444,-0.3414,-0.3409,-0.347,-0.347,-0.347,0,-0.377,-0.3775,-0.3766,-0.3745,-0.3745,-0.3717,-0.3742,-0.3727,-0.3699,-0.3701,-0.3676,-0.3649,-0.3626,-0.3578,-0.3556,-0.3578,-0.3513,-0.3529,-0.3525,-0.3536,-0.3532,-0.3528,-0.3524,-0.3576,-0.3576,-0.3576,0,0,-0.3774,-0.3768,-0.3751,-0.3746,-0.3744,-0.3742,-0.3739,-0.3727,-0.3717,-0.371,-0.3698,-0.3683,-0.3644,-0.363,-0.3594,-0.3556,-0.356,-0.3541,-0.3536,-0.3532,-0.3539,-0.3535,-0.3531,-0.3577,-0.3577,-0.3577,0,0,-0.3784,-0.3782,-0.3764,-0.3768,-0.3738,-0.3752,-0.3757,-0.3753,-0.3728,-0.3733,-0.3728,-0.3719,-0.366,-0.3662,-0.3675,-0.3613,-0.3636,-0.3632,-0.361,-0.3604,-0.3599,-0.3616,-0.3691,0,0,0,0,0,-0.3775,-0.378,-0.3763,-0.3764,-0.3767,-0.3749,-0.3748,-0.3759,-0.3786,-0.376,-0.375,-0.3755,-0.367,-0.3682,-0.3672,-0.365,-0.359,-0.3588,-0.3585,-0.3547,-0.354,-0.3535,0,0,0,0,0,0,-0.3775,-0.3775,-0.3764,-0.3779,-0.378,-0.375,-0.3788,-0.379,-0.3787,-0.3789,-0.376,-0.3754,-0.3745,-0.3687,-0.3678,-0.3657,-0.3694,-0.3589,-0.3587,-0.3585,-0.3544,-0.3539,-0.3535,0,0,0,0,0,-0.3776,-0.3776,-0.3777,-0.3779,-0.378,-0.3793,-0.3788,-0.379,-0.3783,-0.3769,-0.3765,-0.3791,-0.3746,-0.3737,-0.3681,-0.3661,-0.3701,-0.3697,-0.3588,-0.3586,-0.3585,-0.3542,0,0,0,0,0,0,-0.3776,-0.3773,-0.3777,-0.3778,-0.3785,-0.3793,-0.3794,-0.379,-0.3762,-0.376,-0.38,-0.3801,-0.3746,-0.3738,-0.3731,-0.3663,-0.3706,-0.3702,-0.37,-0.3587,-0.3585,-0.3584,0,0,0,0,0,0,-0.3774,-0.3774,-0.3778,-0.3784,-0.3786,-0.3793,-0.3794,-0.3758,-0.376,-0.3793,-0.3795,-0.38,-0.3742,-0.374,-0.3734,-0.3678,-0.3709,-0.3706,-0.3704,-0.3703,-0.3586,-0.3585,0,0,0,0,0,0,-0.3774,-0.3774,-0.3784,-0.3785,-0.3786,-0.3796,-0.3759,-0.3751,-0.38,-0.3793,-0.3802,-0.3803,-0.3742,-0.3738,-0.3736,-0.3683,-0.3679,-0.3709,-0.3707,-0.3706,-0.3705,0,0,0,0,0,0,0,-0.3774,-0.377,-0.3775,-0.3786,-0.3787,-0.3788,-0.3788,-0.3788,-0.3801,-0.3801,-0.3802,-0.3802,-0.3728,-0.3724,-0.3721,-0.3686,0,0,-0.371,-0.3708,0,0,0,0,0,0,0,0,-0.377,-0.377,-0.3775,-0.3775,-0.3776,-0.3788,-0.3788,-0.3788,-0.3801,-0.3801,-0.3802,-0.3802,-0.3727,-0.3724,-0.3721,0,0,0,0,0,0,0,0,0,0,0,0,0,0,0,-0.3775,-0.3775,0,-0.3788,-0.3788,-0.3788,-0.3801,-0.3801,-0.3802,-0.3802,-0.3726,-0.3724,-0.3721,0,0,0,0,0,0,0,0,0,0,0,0,0,0,0,0,0,0,0,0,0,0,0,0,0,0,0,0,0,0,0,0,0,0,0,0,0,0,0,0,0,0,0,0,0,0,0,0,0,0,0,0,0,0,0,0,0,0,0,0,0,0,0,0,0,0,0,0,0]}]],[[{"header":{"parameterUnit":"kt","parameterCategory":2,"dx":1,"dy":1,"la1":30.253999710083008,"la2":30.299108505249023,"lo1":-89.0895004272461,"lo2":-89.04439544677734,"nx":28,"ny":28,"refTime":"2022-09-21T09:00:00:Z","depth":"2","parameterNumber":2,"parameterNumberName":"U-component_of_CURRENTS"},"data":[-0.1029,-0.0951,-0.0945,-0.0914,-0.0904,-0.096,-0.1042,-0.1247,-0.1262,-0.1192,-0.1003,-0.1016,-0.0796,-0.049,-0.0409,-0.0252,-0.0256,-0.0257,-0.0259,-0.0343,-0.0343,-0.0286,-0.0386,0,0,0,0,0,-0.1117,-0.1086,-0.1005,-0.0964,-0.0963,-0.0941,-0.1029,-0.1141,-0.1346,-0.1258,-0.1421,-0.1148,-0.1006,-0.0699,-0.0294,-0.017,-0.0197,-0.0165,-0.0223,-0.0225,-0.0226,-0.0286,-0.0211,-0.021,-0.0209,-0.0208,0,0,-0.1273,-0.1214,-0.1169,-0.1081,-0.1035,-0.1051,-0.1056,-0.1121,-0.1218,-0.131,-0.1448,-0.143,-0.1221,-0.0676,-0.0513,-0.0244,-0.0261,-0.0203,-0.0206,-0.0208,-0.0265,-0.0327,-0.0186,-0.0186,-0.0185,-0.0185,-0.0184,0,-0.143,-0.1399,-0.1339,-0.126,-0.1175,-0.1126,-0.1078,-0.1097,-0.1115,-0.1184,-0.134,-0.139,-0.1149,-0.0952,-0.0564,-0.0447,-0.0267,-0.0225,-0.02,-0.0351,-0.0418,-0.0456,-0.0476,-0.0282,-0.0282,-0.0282,-0.0282,-0.0282,-0.1601,-0.1544,-0.1465,-0.1411,-0.1345,-0.1236,-0.1171,-0.1138,-0.1127,-0.1137,-0.1143,-0.1057,-0.11,-0.0834,-0.0569,-0.0321,-0.0335,-0.0229,-0.0276,-0.0328,-0.0362,-0.0386,-0.0409,-0.0281,-0.0281,-0.0281,-0.0281,0,-0.1691,-0.1676,-0.1571,-0.1501,-0.1469,-0.1369,-0.127,-0.1203,-0.116,-0.1094,-0.1064,-0.1047,-0.0952,-0.0778,-0.0597,-0.05,-0.0348,-0.0301,-0.0408,-0.0429,-0.0404,-0.0425,-0.0177,-0.0175,-0.0174,-0.0173,-0.0172,0,-0.1804,-0.1721,-0.168,-0.1625,-0.1518,-0.1476,-0.1341,-0.1283,-0.1196,-0.1142,-0.1069,-0.105,-0.0883,-0.0777,-0.0685,-0.054,-0.0505,-0.0465,-0.0474,-0.0544,-0.0556,-0.061,-0.0634,-0.0413,-0.0415,-0.0416,-0.0417,0,-0.1879,-0.1799,-0.1715,-0.1686,-0.1605,-0.1523,-0.1466,-0.1353,-0.1293,-0.1169,-0.115,-0.0983,-0.0933,-0.08,-0.0736,-0.0776,-0.0557,-0.0609,-0.0542,-0.0546,-0.057,-0.0583,-0.0418,-0.0418,-0.0419,-0.0419,-0.042,0,-0.1928,-0.1899,-0.1789,-0.1724,-0.1698,-0.1614,-0.1503,-0.1427,-0.1303,-0.1272,-0.1158,-0.1131,-0.0973,-0.1017,-0.0823,-0.0908,-0.0847,-0.0809,-0.0804,-0.0826,-0.0925,-0.0873,-0.0686,-0.0802,-0.0805,-0.0808,-0.0811,0,-0.2031,-0.1946,-0.1914,-0.1805,-0.176,-0.1726,-0.1638,-0.1555,-0.1501,-0.1411,-0.1315,-0.1225,-0.1227,-0.1197,-0.1097,-0.1061,-0.0948,-0.1058,-0.0959,-0.0955,-0.1003,-0.0815,-0.0871,-0.0734,-0.0849,-0.0845,-0.0842,0,-0.2107,-0.2038,-0.2018,-0.1988,-0.1923,-0.1881,-0.1776,-0.1689,-0.1629,-0.1547,-0.1453,-0.1315,-0.1313,-0.1264,-0.1247,-0.1159,-0.1017,-0.1213,-0.1211,-0.1177,-0.0852,-0.0869,-0.0846,-0.104,-0.1035,-0.1031,-0.0873,0,-0.2186,-0.2126,-0.2086,-0.2036,-0.1991,-0.1933,-0.1897,-0.1838,-0.1815,-0.1778,-0.1647,-0.1589,-0.1499,-0.1466,-0.1467,-0.1307,-0.1344,-0.1378,-0.143,-0.1304,-0.1255,-0.1231,-0.1544,-0.1546,-0.1548,-0.1549,0,0,-0.2292,-0.2222,-0.2216,-0.217,-0.2135,-0.2136,-0.2076,-0.2027,-0.1962,-0.1916,-0.1944,-0.1781,-0.1745,-0.1596,-0.1552,-0.1541,-0.1521,-0.1558,-0.1372,-0.1353,-0.1335,-0.1281,-0.1256,-0.1551,-0.1552,-0.1552,-0.1553,0,-0.2333,-0.2299,-0.2248,-0.2221,-0.2183,-0.2167,-0.215,-0.2112,-0.2076,-0.199,-0.1985,-0.1904,-0.1823,-0.1756,-0.1717,-0.1577,-0.16,-0.1573,-0.1474,-0.1389,-0.1367,-0.1348,-0.1292,-0.1268,-0.1557,-0.1556,-0.1556,0,-0.2421,-0.2404,-0.2371,-0.2319,-0.2288,-0.2238,-0.2272,-0.2212,-0.2157,-0.2178,-0.2075,-0.2049,-0.1996,-0.189,-0.1843,-0.187,-0.1668,-0.1744,-0.1735,-0.1713,-0.1628,-0.1602,-0.158,-0.187,-0.1872,-0.1873,0,0,-0.2467,-0.242,-0.2401,-0.233,-0.2315,-0.2291,-0.2259,-0.225,-0.2207,-0.2181,-0.215,-0.2098,-0.2033,-0.1992,-0.194,-0.184,-0.1818,-0.1783,-0.1769,-0.1756,-0.1728,-0.164,-0.1615,-0.1877,-0.1877,-0.1877,0,0,-0.2487,-0.2463,-0.2463,-0.2387,-0.2353,-0.2322,-0.227,-0.2271,-0.2208,-0.2201,-0.2194,-0.2182,-0.2085,-0.2069,-0.2126,-0.1951,-0.2011,-0.1998,-0.1965,-0.1946,-0.1932,-0.1914,-0.217,0,0,0,0,0,-0.2536,-0.2472,-0.2472,-0.2458,-0.2379,-0.2324,-0.2311,-0.2289,-0.2301,-0.2259,-0.2223,-0.2245,-0.2088,-0.2138,-0.2125,-0.2058,-0.1931,-0.1922,-0.1912,-0.1846,-0.1827,-0.181,0,0,0,0,0,0,-0.2531,-0.2514,-0.2474,-0.2443,-0.2425,-0.2326,-0.2356,-0.2347,-0.2304,-0.2303,-0.225,-0.2244,-0.2238,-0.2146,-0.2134,-0.207,-0.2174,-0.1927,-0.1919,-0.1912,-0.1839,-0.1823,-0.181,0,0,0,0,0,-0.2526,-0.2513,-0.2393,-0.2443,-0.2428,-0.2388,-0.2357,-0.235,-0.2307,-0.2284,-0.2277,-0.2292,-0.2238,-0.2226,-0.2139,-0.2075,-0.2183,-0.2178,-0.1922,-0.1916,-0.191,-0.1832,0,0,0,0,0,0,-0.2523,-0.2498,-0.2389,-0.2383,-0.2461,-0.2392,-0.238,-0.2353,-0.2289,-0.2282,-0.2329,-0.2329,-0.2237,-0.2228,-0.2219,-0.2076,-0.219,-0.2185,-0.2182,-0.1917,-0.1912,-0.1908,0,0,0,0,0,0,-0.2505,-0.2493,-0.2386,-0.241,-0.2406,-0.2396,-0.2385,-0.2332,-0.2289,-0.2337,-0.2336,-0.233,-0.2257,-0.2229,-0.2222,-0.2139,-0.2195,-0.219,-0.2187,-0.2185,-0.1913,-0.1909,0,0,0,0,0,0,-0.25,-0.2489,-0.2411,-0.2408,-0.2405,-0.2335,-0.2348,-0.2268,-0.2305,-0.2339,-0.2309,-0.2311,-0.2259,-0.2251,-0.2224,-0.2144,-0.214,-0.2195,-0.2192,-0.219,-0.2188,0,0,0,0,0,0,0,-0.2495,-0.2573,-0.2428,-0.2407,-0.2404,-0.2331,-0.2329,-0.2327,-0.2306,-0.2307,-0.2309,-0.231,-0.2221,-0.2216,-0.2211,-0.2148,0,0,-0.2195,-0.2193,0,0,0,0,0,0,0,0,-0.2576,-0.2573,-0.2428,-0.2427,-0.2426,-0.233,-0.2329,-0.2327,-0.2306,-0.2307,-0.2309,-0.231,-0.2219,-0.2215,-0.2211,0,0,0,0,0,0,0,0,0,0,0,0,0,0,0,-0.2428,-0.2427,0,-0.233,-0.2329,-0.2327,-0.2306,-0.2307,-0.2308,-0.2309,-0.2218,-0.2215,-0.2212,0,0,0,0,0,0,0,0,0,0,0,0,0,0,0,0,0,0,0,0,0,0,0,0,0,0,0,0,0,0,0,0,0,0,0,0,0,0,0,0,0,0,0,0,0,0,0,0,0,0,0,0,0,0,0,0,0,0,0,0,0,0,0,0,0,0,0,0,0]}],[{"header":{"parameterUnit":"kt","parameterCategory":2,"dx":1,"dy":1,"la1":30.253999710083008,"la2":30.299108505249023,"lo1":-89.0895004272461,"lo2":-89.04439544677734,"nx":28,"ny":28,"refTime":"2022-09-21T09:00:00:Z","depth":"2","parameterNumber":3,"parameterNumberName":"V-component_of_CURRENTS"},"data":[0.1293,0.1226,0.1186,0.1083,0.1046,0.098,0.0969,0.0837,0.0679,0.038,0.0241,-0.0053,0.0287,0.0288,0.0457,0.0697,0.0733,0.0669,0.0787,0.0747,0.0755,0.0942,0.0851,0,0,0,0,0,0.1306,0.1256,0.1211,0.1106,0.1033,0.1018,0.094,0.087,0.0889,0.0669,0.063,0.0455,0.0495,0.065,0.0816,0.0853,0.0826,0.0897,0.0877,0.0889,0.0899,0.0835,0.0786,0.0787,0.0787,0.0787,0,0,0.1303,0.1269,0.1192,0.1135,0.1066,0.0983,0.0949,0.0911,0.0903,0.0832,0.0937,0.092,0.0914,0.0798,0.0909,0.1043,0.1043,0.1018,0.1022,0.1028,0.097,0.0939,0.0957,0.0958,0.0959,0.0959,0.096,0,0.1246,0.1222,0.1179,0.1107,0.1057,0.098,0.0922,0.0905,0.0881,0.0927,0.1056,0.1107,0.1188,0.1184,0.1159,0.1143,0.1154,0.1142,0.1275,0.1002,0.0972,0.0999,0.1001,0.1005,0.1006,0.1007,0.1008,0.1009,0.1179,0.1164,0.1093,0.1064,0.1041,0.0991,0.0949,0.0906,0.0898,0.0986,0.1009,0.1123,0.1169,0.1283,0.1245,0.1235,0.1294,0.1176,0.1073,0.1146,0.1175,0.1171,0.1167,0.1023,0.1021,0.102,0.1018,0,0.1134,0.1091,0.1075,0.1021,0.0993,0.0984,0.0923,0.0915,0.093,0.0944,0.0944,0.1046,0.1139,0.1154,0.1237,0.1189,0.1228,0.1232,0.1146,0.1163,0.1172,0.1167,0.1211,0.121,0.1209,0.1209,0.1209,0,0.107,0.1069,0.1003,0.1003,0.0973,0.0959,0.0949,0.0942,0.0941,0.0943,0.0958,0.1005,0.1008,0.1073,0.1086,0.1127,0.1169,0.11,0.1134,0.1062,0.1054,0.117,0.1171,0.115,0.1149,0.1148,0.1148,0,0.1075,0.1021,0.0997,0.0989,0.0959,0.0956,0.0933,0.0942,0.0932,0.0948,0.0972,0.0961,0.0983,0.1002,0.1048,0.1025,0.1138,0.1126,0.1119,0.1119,0.1099,0.1095,0.1147,0.1147,0.1147,0.1146,0.1146,0,0.1053,0.1027,0.0993,0.0975,0.0973,0.0955,0.0966,0.0941,0.0949,0.0957,0.0941,0.0956,0.0934,0.0927,0.0971,0.0959,0.0994,0.1029,0.1035,0.104,0.1087,0.1126,0.1048,0.1128,0.1127,0.1127,0.1126,0,0.1072,0.1032,0.1027,0.0997,0.0984,0.0991,0.097,0.0962,0.0968,0.0979,0.0954,0.0953,0.0918,0.0925,0.0919,0.0984,0.0984,0.0945,0.1108,0.1113,0.1118,0.1044,0.0964,0.1042,0.1118,0.1119,0.1119,0,0.1104,0.1073,0.1078,0.1072,0.1061,0.1055,0.1024,0.1008,0.1018,0.0986,0.0995,0.0935,0.0954,0.0954,0.096,0.0966,0.0974,0.1015,0.102,0.1089,0.1073,0.1039,0.1042,0.1011,0.1011,0.1011,0.1112,0,0.1119,0.111,0.1102,0.1089,0.1086,0.1071,0.1065,0.1059,0.1068,0.1071,0.105,0.1052,0.1057,0.1033,0.1046,0.102,0.1064,0.109,0.1164,0.1089,0.114,0.1145,0.1114,0.1116,0.1118,0.1119,0,0,0.1165,0.1142,0.1159,0.1145,0.1146,0.1162,0.1143,0.114,0.1148,0.1153,0.1167,0.116,0.1176,0.1149,0.1108,0.1113,0.1158,0.1153,0.1104,0.1102,0.11,0.1147,0.115,0.1121,0.1122,0.1122,0.1123,0,0.1171,0.1181,0.1167,0.1164,0.1171,0.1177,0.117,0.1183,0.1197,0.1178,0.1219,0.1209,0.1221,0.1226,0.1229,0.1137,0.1233,0.1133,0.1079,0.1115,0.1111,0.1108,0.1152,0.1154,0.1127,0.1126,0.1126,0,0.1199,0.1204,0.1198,0.1192,0.1207,0.1191,0.1236,0.1239,0.1226,0.1297,0.1298,0.1314,0.1335,0.1313,0.1309,0.1338,0.1306,0.1299,0.129,0.1301,0.1343,0.1337,0.1331,0.1419,0.142,0.1421,0,0,0.121,0.1205,0.1205,0.1194,0.1195,0.1223,0.1231,0.1254,0.1274,0.1292,0.1328,0.1352,0.1354,0.1366,0.1378,0.1357,0.1407,0.1335,0.1321,0.131,0.1314,0.1352,0.1345,0.1424,0.1424,0.1424,0,0,0.1219,0.1222,0.1234,0.1221,0.122,0.1246,0.1257,0.1277,0.1305,0.1325,0.1384,0.1397,0.1387,0.1413,0.1454,0.1403,0.1457,0.145,0.14,0.1384,0.137,0.1377,0.1539,0,0,0,0,0,0.1228,0.1213,0.1223,0.1222,0.1238,0.1229,0.1236,0.1286,0.1321,0.132,0.1356,0.1417,0.1434,0.1472,0.1482,0.1455,0.1472,0.1464,0.1456,0.1386,0.1368,0.1353,0,0,0,0,0,0,0.1227,0.1225,0.1223,0.1242,0.1246,0.1231,0.129,0.1304,0.1323,0.1333,0.1404,0.1418,0.1465,0.1473,0.148,0.1453,0.1537,0.1469,0.1462,0.1455,0.138,0.1365,0.1352,0,0,0,0,0,0.1227,0.1225,0.1235,0.1244,0.1248,0.1302,0.1293,0.1305,0.133,0.1388,0.1404,0.1367,0.1463,0.1474,0.1478,0.1447,0.1532,0.1535,0.1464,0.1458,0.1453,0.1373,0,0,0,0,0,0,0.1227,0.1249,0.1238,0.1241,0.1261,0.1305,0.1313,0.1305,0.1387,0.1399,0.1353,0.136,0.146,0.147,0.1478,0.1441,0.1528,0.1531,0.1532,0.146,0.1455,0.1451,0,0,0,0,0,0,0.125,0.1251,0.124,0.1258,0.1265,0.1308,0.1314,0.1333,0.1388,0.1349,0.1356,0.1355,0.1453,0.1466,0.1473,0.1501,0.1525,0.1528,0.1529,0.153,0.1456,0.1453,0,0,0,0,0,0,0.1252,0.1253,0.1258,0.1263,0.1269,0.132,0.1329,0.135,0.1382,0.1345,0.1388,0.1391,0.1449,0.1457,0.1469,0.1494,0.1499,0.1525,0.1527,0.1528,0.1529,0,0,0,0,0,0,0,0.1253,0.1227,0.1209,0.1267,0.1273,0.1275,0.1277,0.1278,0.1383,0.1385,0.1387,0.1389,0.1511,0.1513,0.1516,0.1488,0,0,0.1525,0.1526,0,0,0,0,0,0,0,0,0.1228,0.1227,0.1209,0.121,0.121,0.1275,0.1277,0.1278,0.1383,0.1385,0.1387,0.1389,0.1511,0.1514,0.1516,0,0,0,0,0,0,0,0,0,0,0,0,0,0,0,0.1209,0.121,0,0.1275,0.1276,0.1278,0.1383,0.1385,0.1386,0.1388,0.1512,0.1514,0.1516,0,0,0,0,0,0,0,0,0,0,0,0,0,0,0,0,0,0,0,0,0,0,0,0,0,0,0,0,0,0,0,0,0,0,0,0,0,0,0,0,0,0,0,0,0,0,0,0,0,0,0,0,0,0,0,0,0,0,0,0,0,0,0,0,0,0,0,0,0]}]],[[{"header":{"parameterUnit":"kt","parameterCategory":2,"dx":1,"dy":1,"la1":30.253999710083008,"la2":30.299108505249023,"lo1":-89.0895004272461,"lo2":-89.04439544677734,"nx":28,"ny":28,"refTime":"2022-09-21T09:00:00:Z","depth":"4","parameterNumber":2,"parameterNumberName":"U-component_of_CURRENTS"},"data":[-0.0843,-0.0847,-0.0839,-0.073,-0.0664,-0.0623,-0.0629,-0.0666,-0.0644,-0.0702,-0.0695,-0.0737,-0.0723,-0.0779,-0.0698,-0.0699,-0.0858,-0.0738,-0.0735,-0.1075,-0.1101,-0.1124,-0.1112,0,0,0,0,0,-0.0877,-0.0856,-0.0858,-0.082,-0.0805,-0.0788,-0.0814,-0.0849,-0.0888,-0.0822,-0.0864,-0.0819,-0.0775,-0.0782,-0.0731,-0.0788,-0.0944,-0.0722,-0.1008,-0.1091,-0.112,-0.1098,0,0,0,0,0,0,-0.0914,-0.0907,-0.0932,-0.0932,-0.0924,-0.0872,-0.0901,-0.0885,-0.0895,-0.0939,-0.0896,-0.0914,-0.0992,-0.0942,-0.0896,-0.0883,-0.0946,-0.0988,-0.102,-0.1049,-0.1009,-0.0912,-0.0634,0,0,0,0,0,-0.094,-0.0972,-0.0985,-0.0991,-0.1005,-0.0998,-0.1015,-0.0999,-0.1052,-0.1111,-0.1052,-0.104,-0.1021,-0.108,-0.1039,-0.1057,-0.1301,-0.1197,-0.1217,-0.1376,-0.1326,-0.1338,-0.1359,-0.1231,-0.1235,-0.1237,-0.1238,0,-0.0995,-0.0999,-0.1047,-0.1048,-0.1073,-0.1105,-0.1112,-0.1178,-0.1181,-0.1207,-0.1186,-0.1224,-0.1261,-0.119,-0.1297,-0.1293,-0.1304,-0.1271,-0.1439,-0.1373,-0.1376,-0.139,-0.1403,-0.1262,-0.126,-0.1258,-0.1256,0,-0.1022,-0.1058,-0.1075,-0.1122,-0.1134,-0.1153,-0.1205,-0.1212,-0.1272,-0.1276,-0.13,-0.1388,-0.1414,-0.1495,-0.1589,-0.1576,-0.156,-0.1494,-0.1692,-0.1698,-0.1443,-0.1447,-0.13,-0.1292,-0.1285,-0.1278,-0.1273,0,-0.1076,-0.109,-0.1144,-0.1148,-0.1159,-0.1219,-0.1239,-0.1273,-0.1321,-0.133,-0.1437,-0.1437,-0.1639,-0.1657,-0.1721,-0.1671,-0.1774,-0.1687,-0.1671,-0.1943,-0.1945,-0.1921,-0.192,-0.1934,-0.1935,-0.1936,-0.1936,0,-0.1107,-0.115,-0.1165,-0.1184,-0.1233,-0.1248,-0.1284,-0.134,-0.1357,-0.1425,-0.1446,-0.1557,-0.1627,-0.1696,-0.1775,-0.1847,-0.1841,-0.1936,-0.1733,-0.1717,-0.1925,-0.1923,-0.1937,-0.1937,-0.1938,-0.1938,-0.1938,0,-0.1157,-0.1168,-0.1191,-0.1228,-0.124,-0.1271,-0.1311,-0.1342,-0.14,-0.1435,-0.1517,-0.1594,-0.169,-0.1738,-0.185,-0.1879,-0.1907,-0.1956,-0.1954,-0.1725,-0.1726,-0.1866,-0.1914,-0.1915,-0.1915,-0.1915,-0.1916,0,-0.1171,-0.1189,-0.1222,-0.1255,-0.1269,-0.1322,-0.134,-0.1388,-0.1438,-0.1476,-0.1562,-0.1646,-0.1729,-0.1796,-0.1844,-0.1951,-0.1945,-0.1965,-0.1951,-0.1948,-0.1728,-0.1721,-0.2018,-0.1922,-0.1921,-0.192,-0.192,0,-0.118,-0.1224,-0.1231,-0.1245,-0.1311,-0.1331,-0.1363,-0.1405,-0.1427,-0.1511,-0.1543,-0.1691,-0.1747,-0.1789,-0.1876,-0.1912,-0.1945,-0.1961,-0.1962,-0.1892,-0.197,-0.1754,-0.1729,-0.2017,-0.2017,-0.2017,-0.1924,0,-0.1204,-0.1224,-0.1235,-0.1273,-0.1303,-0.1333,-0.1375,-0.1406,-0.1459,-0.15,-0.16,-0.1675,-0.1755,-0.1821,-0.1868,-0.1944,-0.194,-0.1969,-0.191,-0.1963,-0.1915,-0.1912,-0.1933,-0.1932,-0.1931,-0.1931,0,0,-0.1208,-0.1219,-0.1252,-0.1269,-0.1297,-0.1352,-0.1373,-0.14,-0.1471,-0.1494,-0.1518,-0.1681,-0.173,-0.1815,-0.1859,-0.1892,-0.1897,-0.1876,-0.1951,-0.1953,-0.1955,-0.1912,-0.191,-0.1929,-0.1929,-0.1929,-0.1929,0,-0.1209,-0.1234,-0.1243,-0.127,-0.1317,-0.1344,-0.1365,-0.142,-0.1441,-0.1502,-0.1562,-0.1639,-0.1727,-0.1763,-0.1798,-0.1879,-0.1869,-0.1938,-0.1922,-0.1945,-0.1948,-0.1951,-0.191,-0.1908,-0.1927,-0.1927,-0.1927,0,-0.1214,-0.1236,-0.1249,-0.1282,-0.1312,-0.1337,-0.1363,-0.1404,-0.1425,-0.1468,-0.1522,-0.1596,-0.165,-0.1718,-0.1755,-0.1726,-0.1811,-0.1815,-0.1821,-0.1784,-0.1803,-0.1808,-0.1813,-0.1745,-0.1744,-0.1744,0,0,-0.1216,-0.1233,-0.127,-0.1286,-0.1302,-0.135,-0.1374,-0.1398,-0.1442,-0.1463,-0.1503,-0.1558,-0.1623,-0.1646,-0.1694,-0.1748,-0.1718,-0.1792,-0.1801,-0.1808,-0.1776,-0.1796,-0.1802,-0.1741,-0.1741,-0.1741,0,0,-0.1218,-0.1258,-0.1273,-0.1288,-0.1319,-0.1358,-0.1377,-0.1411,-0.1455,-0.1471,-0.1501,-0.1511,-0.1593,-0.1598,-0.156,-0.1682,-0.1649,-0.1657,-0.1667,-0.1678,-0.1687,-0.1634,-0.1542,0,0,0,0,0,-0.1249,-0.1253,-0.1266,-0.1275,-0.132,-0.1352,-0.136,-0.139,-0.1421,-0.1428,-0.1476,-0.1475,-0.1583,-0.1549,-0.1559,-0.1609,-0.1706,-0.1712,-0.1718,-0.1747,-0.1759,-0.1768,0,0,0,0,0,0,-0.1253,-0.126,-0.1267,-0.1304,-0.1316,-0.1351,-0.1364,-0.1372,-0.1419,-0.1422,-0.1468,-0.1475,-0.1478,-0.1544,-0.1553,-0.1601,-0.1539,-0.1708,-0.1714,-0.1718,-0.1751,-0.176,-0.1768,0,0,0,0,0,-0.1256,-0.1262,-0.1324,-0.1304,-0.1315,-0.136,-0.1363,-0.137,-0.1409,-0.1435,-0.1443,-0.1434,-0.1477,-0.1488,-0.155,-0.1597,-0.1533,-0.1536,-0.1712,-0.1716,-0.172,-0.1756,0,0,0,0,0,0,-0.1258,-0.1264,-0.1327,-0.1332,-0.1303,-0.1358,-0.1365,-0.1368,-0.1419,-0.1428,-0.1399,-0.14,-0.1477,-0.1485,-0.1493,-0.1596,-0.1528,-0.1531,-0.1533,-0.1715,-0.1718,-0.1721,0,0,0,0,0,0,-0.1262,-0.1268,-0.1329,-0.1326,-0.1331,-0.1357,-0.1363,-0.1399,-0.142,-0.138,-0.1383,-0.1399,-0.1473,-0.1483,-0.149,-0.1545,-0.1524,-0.1527,-0.1529,-0.1531,-0.1717,-0.172,0,0,0,0,0,0,-0.1266,-0.1271,-0.1324,-0.1328,-0.1332,-0.1391,-0.139,-0.1437,-0.1411,-0.1377,-0.1411,-0.1411,-0.1472,-0.1478,-0.1487,-0.1539,-0.1543,-0.1524,-0.1526,-0.1528,-0.1529,0,0,0,0,0,0,0,-0.1269,-0.1219,-0.1301,-0.133,-0.1333,-0.1383,-0.1384,-0.1385,-0.1411,-0.1411,-0.1411,-0.1411,-0.1504,-0.1508,-0.1512,-0.1535,0,0,-0.1523,-0.1525,0,0,0,0,0,0,0,0,-0.1219,-0.1219,-0.1301,-0.1303,-0.1304,-0.1383,-0.1384,-0.1385,-0.1411,-0.1411,-0.1411,-0.1411,-0.1505,-0.1508,-0.1511,0,0,0,0,0,0,0,0,0,0,0,0,0,0,0,-0.1301,-0.1302,0,-0.1383,-0.1384,-0.1385,-0.1411,-0.1411,-0.1411,-0.1411,-0.1506,-0.1509,-0.1511,0,0,0,0,0,0,0,0,0,0,0,0,0,0,0,0,0,0,0,0,0,0,0,0,0,0,0,0,0,0,0,0,0,0,0,0,0,0,0,0,0,0,0,0,0,0,0,0,0,0,0,0,0,0,0,0,0,0,0,0,0,0,0,0,0,0,0,0,0]}],[{"header":{"parameterUnit":"kt","parameterCategory":2,"dx":1,"dy":1,"la1":30.253999710083008,"la2":30.299108505249023,"lo1":-89.0895004272461,"lo2":-89.04439544677734,"nx":28,"ny":28,"refTime":"2022-09-21T09:00:00:Z","depth":"4","parameterNumber":3,"parameterNumberName":"V-component_of_CURRENTS"},"data":[-0.0921,-0.0978,-0.1005,-0.1094,-0.1155,-0.1265,-0.1319,-0.1359,-0.1319,-0.1345,-0.1246,-0.1232,-0.1056,-0.1203,-0.0894,-0.0861,-0.0926,-0.0673,-0.0668,-0.0844,-0.0865,-0.0883,-0.0853,0,0,0,0,0,-0.0932,-0.0956,-0.1029,-0.1114,-0.1217,-0.1276,-0.1358,-0.1398,-0.1442,-0.1394,-0.1415,-0.1302,-0.1122,-0.108,-0.0907,-0.0946,-0.0885,-0.0739,-0.089,-0.0857,-0.088,-0.0843,0,0,0,0,0,0,-0.0945,-0.0976,-0.1043,-0.1118,-0.1219,-0.1291,-0.1346,-0.1375,-0.1419,-0.1471,-0.1443,-0.1385,-0.139,-0.1189,-0.1059,-0.0928,-0.0903,-0.0897,-0.0916,-0.0937,-0.0909,-0.0865,-0.0694,0,0,0,0,0,-0.0942,-0.0984,-0.1041,-0.1126,-0.1207,-0.1298,-0.1387,-0.1405,-0.1499,-0.1556,-0.1526,-0.1463,-0.1363,-0.1273,-0.1134,-0.1023,-0.1141,-0.103,-0.1042,-0.1067,-0.1042,-0.1014,-0.1026,-0.0967,-0.097,-0.0972,-0.0973,0,-0.0932,-0.0968,-0.1074,-0.1123,-0.118,-0.1281,-0.1351,-0.1451,-0.1498,-0.158,-0.159,-0.1584,-0.1583,-0.1369,-0.1327,-0.1166,-0.1123,-0.1089,-0.1116,-0.108,-0.1044,-0.1051,-0.1056,-0.0991,-0.099,-0.0988,-0.0987,0,-0.0925,-0.0972,-0.1049,-0.1148,-0.1186,-0.1256,-0.1385,-0.1449,-0.1527,-0.1596,-0.1629,-0.1688,-0.1625,-0.159,-0.1526,-0.1435,-0.1321,-0.1232,-0.1427,-0.1393,-0.109,-0.1089,-0.1021,-0.1015,-0.1009,-0.1004,-0.1,0,-0.0924,-0.0981,-0.1057,-0.1095,-0.1183,-0.1258,-0.1363,-0.1429,-0.1516,-0.1571,-0.1637,-0.166,-0.1692,-0.1658,-0.1588,-0.1433,-0.1531,-0.1309,-0.1264,-0.1461,-0.1458,-0.1426,-0.1419,-0.1492,-0.1493,-0.1493,-0.1493,0,-0.0905,-0.0991,-0.1056,-0.1089,-0.1189,-0.1248,-0.1313,-0.1406,-0.1458,-0.1552,-0.1588,-0.1646,-0.1672,-0.164,-0.1569,-0.1576,-0.1518,-0.1515,-0.13,-0.1286,-0.1425,-0.1417,-0.1494,-0.1494,-0.1494,-0.1494,-0.1494,0,-0.0915,-0.0951,-0.1029,-0.1124,-0.1148,-0.1207,-0.1311,-0.1369,-0.1448,-0.1482,-0.1545,-0.1566,-0.1609,-0.1568,-0.1561,-0.156,-0.1505,-0.1471,-0.1468,-0.1272,-0.1198,-0.1311,-0.1393,-0.1393,-0.1392,-0.1392,-0.1392,0,-0.0887,-0.0948,-0.0988,-0.107,-0.1108,-0.116,-0.1217,-0.1279,-0.1327,-0.1386,-0.1415,-0.1476,-0.1457,-0.1485,-0.1487,-0.1466,-0.1457,-0.1456,-0.1376,-0.1374,-0.1199,-0.1232,-0.1434,-0.1387,-0.1388,-0.1388,-0.1388,0,-0.086,-0.0929,-0.0939,-0.0977,-0.1041,-0.1072,-0.1136,-0.1198,-0.1245,-0.1291,-0.1352,-0.1406,-0.1415,-0.1425,-0.1418,-0.1418,-0.1443,-0.1374,-0.1372,-0.1344,-0.1429,-0.1248,-0.1233,-0.1428,-0.1429,-0.143,-0.1385,0,-0.0858,-0.09,-0.0917,-0.0964,-0.1001,-0.1038,-0.107,-0.1111,-0.114,-0.1165,-0.1241,-0.1257,-0.13,-0.1305,-0.1296,-0.1347,-0.1311,-0.129,-0.1234,-0.1299,-0.1268,-0.1271,-0.1212,-0.121,-0.1209,-0.1208,0,0,-0.0822,-0.0859,-0.0871,-0.0902,-0.0932,-0.0945,-0.0986,-0.1009,-0.1052,-0.1082,-0.1073,-0.1155,-0.1154,-0.1212,-0.1237,-0.1234,-0.1214,-0.1206,-0.1269,-0.1276,-0.1283,-0.1257,-0.1261,-0.1205,-0.1205,-0.1204,-0.1204,0,-0.0807,-0.0833,-0.0859,-0.0882,-0.0912,-0.0926,-0.0941,-0.0969,-0.0987,-0.1045,-0.1044,-0.1085,-0.1113,-0.1125,-0.1132,-0.1211,-0.1155,-0.1208,-0.1255,-0.1257,-0.1266,-0.1274,-0.1251,-0.1256,-0.12,-0.1201,-0.1201,0,-0.0783,-0.0796,-0.0813,-0.0845,-0.086,-0.0892,-0.0876,-0.0908,-0.0941,-0.0924,-0.098,-0.0996,-0.0999,-0.1044,-0.1062,-0.103,-0.1091,-0.1077,-0.1085,-0.109,-0.1089,-0.11,-0.111,-0.0982,-0.0981,-0.0981,0,0,-0.0769,-0.0795,-0.0811,-0.0841,-0.0852,-0.0867,-0.0883,-0.0892,-0.0913,-0.0928,-0.0937,-0.0951,-0.0976,-0.0983,-0.1002,-0.1036,-0.1012,-0.1052,-0.1063,-0.1071,-0.1082,-0.1083,-0.1094,-0.0978,-0.0978,-0.0978,0,0,-0.0756,-0.0776,-0.0784,-0.0817,-0.0837,-0.0845,-0.0868,-0.0875,-0.0909,-0.0915,-0.0903,-0.0905,-0.0957,-0.0939,-0.0915,-0.0974,-0.0929,-0.0934,-0.0985,-0.0998,-0.1008,-0.1017,-0.0861,0,0,0,0,0,-0.0746,-0.0772,-0.078,-0.0787,-0.0821,-0.0845,-0.085,-0.0859,-0.0859,-0.088,-0.09,-0.0867,-0.0925,-0.0904,-0.0905,-0.0932,-0.0951,-0.0956,-0.0961,-0.1036,-0.1049,-0.106,0,0,0,0,0,0,-0.0748,-0.0756,-0.0779,-0.0787,-0.0795,-0.0843,-0.0825,-0.0828,-0.0857,-0.0857,-0.0867,-0.0866,-0.0852,-0.09,-0.0902,-0.0928,-0.0861,-0.0953,-0.0957,-0.0961,-0.104,-0.1051,-0.1061,0,0,0,0,0,-0.075,-0.0756,-0.081,-0.0787,-0.0794,-0.0811,-0.0824,-0.0827,-0.0855,-0.0844,-0.0845,-0.0862,-0.0853,-0.0854,-0.0901,-0.0928,-0.0859,-0.086,-0.0956,-0.0959,-0.0962,-0.1046,0,0,0,0,0,0,-0.0752,-0.0761,-0.0812,-0.0814,-0.0779,-0.0809,-0.0814,-0.0826,-0.0841,-0.0842,-0.0836,-0.0835,-0.0853,-0.0854,-0.0856,-0.093,-0.0857,-0.0858,-0.0859,-0.0958,-0.0961,-0.0963,0,0,0,0,0,0,-0.0758,-0.0763,-0.0813,-0.0802,-0.0804,-0.0807,-0.0811,-0.0823,-0.084,-0.0831,-0.0832,-0.0835,-0.0843,-0.0855,-0.0856,-0.0875,-0.0856,-0.0857,-0.0858,-0.0858,-0.096,-0.0962,0,0,0,0,0,0,-0.076,-0.0765,-0.0802,-0.0803,-0.0804,-0.0834,-0.0817,-0.0849,-0.0844,-0.083,-0.0843,-0.0842,-0.0843,-0.0844,-0.0856,-0.0874,-0.0875,-0.0856,-0.0857,-0.0857,-0.0858,0,0,0,0,0,0,0,-0.0762,-0.0729,-0.0796,-0.0804,-0.0805,-0.0837,-0.0838,-0.0839,-0.0844,-0.0843,-0.0843,-0.0842,-0.0851,-0.0852,-0.0853,-0.0874,0,0,-0.0856,-0.0857,0,0,0,0,0,0,0,0,-0.0727,-0.0728,-0.0796,-0.0796,-0.0797,-0.0837,-0.0838,-0.0839,-0.0844,-0.0844,-0.0843,-0.0842,-0.0851,-0.0852,-0.0853,0,0,0,0,0,0,0,0,0,0,0,0,0,0,0,-0.0796,-0.0796,0,-0.0837,-0.0838,-0.0838,-0.0844,-0.0844,-0.0843,-0.0843,-0.0852,-0.0852,-0.0853,0,0,0,0,0,0,0,0,0,0,0,0,0,0,0,0,0,0,0,0,0,0,0,0,0,0,0,0,0,0,0,0,0,0,0,0,0,0,0,0,0,0,0,0,0,0,0,0,0,0,0,0,0,0,0,0,0,0,0,0,0,0,0,0,0,0,0,0,0]}]]]